Location: Devore Heights
(34.2372°N, 117.4156°W)
Time: 15:32:12
(UTC+00:00)

Tiros 1 despin weight - Pass Details

Date: 19 September 2024
Orbit: 573 x 615 km, 48.2° (Epoch: 04 October)

Event Time Altitude Azimuth Distance (km) Brightness Sun altitude
Exits shadow 12:26:05 - 318° (NW) 2,338 ? -15.2°
Reaches altitude 10° 12:27:37 10° 332° (NNW) 1,979 ? -14.9°
Maximum altitude 12:30:00 14° 4° (N) 1,736 ? -14.4°
Drops below altitude 10° 12:32:23 10° 36° (NE) 1,981 ? -13.9°
Sets 12:35:47 0° 62° (ENE) 2,886 ? -13.2°
